TimeICT,TemperatureF,Dew PointF,Humidity,Sea Level PressureIn,VisibilityMPH,Wind Direction,Wind SpeedMPH,Gust SpeedMPH,PrecipitationIn,Events,Conditions,WindDirDegrees,DateUTC
12:00 AM,82.4,71.6,70,29.89,6.2,East,4.6,-,N/A,,Mostly Cloudy,80,2012-11-01 17:00:00
12:30 AM,80.6,73.4,79,29.86,6.2,East,3.5,-,N/A,,Mostly Cloudy,100,2012-11-01 17:30:00
1:00 AM,80,72,70,29.85,5,Calm,Calm,,,,Mist,,2012-11-01 18:00:00
1:00 AM,80.6,73.4,79,29.86,6.2,East,4.6,-,N/A,,Mostly Cloudy,100,2012-11-01 18:00:00
1:30 AM,80.6,71.6,74,29.86,6.2,East,5.8,-,N/A,,Scattered Clouds,90,2012-11-01 18:30:00
2:00 AM,80.6,71.6,74,29.86,6.2,Calm,Calm,-,N/A,,Scattered Clouds,0,2012-11-01 19:00:00
2:30 AM,80.6,71.6,74,29.83,6.2,East,2.3,-,N/A,,Scattered Clouds,100,2012-11-01 19:30:00
3:00 AM,78.8,69.8,74,29.83,6.2,West,2.3,-,N/A,,Scattered Clouds,280,2012-11-01 20:00:00
3:30 AM,78.8,71.6,78,29.83,6.2,WNW,3.5,-,N/A,,Scattered Clouds,300,2012-11-01 20:30:00
4:00 AM,78.8,69.8,74,29.83,6.2,NNE,2.3,-,N/A,,Scattered Clouds,30,2012-11-01 21:00:00
4:30 AM,77.0,71.6,83,29.83,6.2,Calm,Calm,-,N/A,,Scattered Clouds,0,2012-11-01 21:30:00
5:00 AM,78.8,71.6,78,29.86,6.2,North,3.5,-,N/A,,Scattered Clouds,350,2012-11-01 22:00:00
5:30 AM,78.8,69.8,74,29.86,6.2,Calm,Calm,-,N/A,,Scattered Clouds,0,2012-11-01 22:30:00
6:00 AM,78.8,69.8,74,29.86,6.2,Calm,Calm,-,N/A,,Scattered Clouds,0,2012-11-01 23:00:00
6:30 AM,78.8,69.8,74,29.86,5.0,NW,4.6,-,N/A,,Mostly Cloudy,320,2012-11-01 23:30:00
7:00 AM,78,72,78,29.86,5,Calm,Calm,,,,Mist,,2012-11-02 00:00:00
7:00 AM,78.8,71.6,78,29.89,5.0,NNE,5.8,-,N/A,,Mostly Cloudy,20,2012-11-02 00:00:00
7:30 AM,80.6,71.6,74,29.89,4.3,NNW,5.8,-,N/A,,Mostly Cloudy,330,2012-11-02 00:30:00
8:00 AM,80.6,71.6,74,29.89,5.6,NNW,8.1,-,N/A,,Scattered Clouds,330,2012-11-02 01:00:00
8:30 AM,82.4,69.8,66,29.92,5.6,NNW,8.1,-,N/A,,Scattered Clouds,340,2012-11-02 01:30:00
9:00 AM,84.2,69.8,62,29.92,6.2,NNE,4.6,-,N/A,,Scattered Clouds,30,2012-11-02 02:00:00
9:30 AM,84.2,71.6,66,29.92,6.2,ENE,4.6,-,N/A,,Scattered Clouds,60,2012-11-02 02:30:00
10:00 AM,86.0,69.8,58,29.92,6.2,ENE,4.6,-,N/A,,Scattered Clouds,60,2012-11-02 03:00:00
10:30 AM,86.0,69.8,58,29.89,6.2,NE,6.9,-,N/A,,Mostly Cloudy,40,2012-11-02 03:30:00
11:00 AM,87.8,69.8,55,29.89,6.2,ENE,5.8,-,N/A,,Mostly Cloudy,70,2012-11-02 04:00:00
11:30 AM,87.8,69.8,55,29.86,6.2,ENE,6.9,-,N/A,,Mostly Cloudy,60,2012-11-02 04:30:00
12:00 PM,89.6,68.0,49,29.86,6.2,NE,6.9,-,N/A,,Mostly Cloudy,50,2012-11-02 05:00:00
12:30 PM,89.6,69.8,52,29.83,6.2,NE,4.6,-,N/A,,Mostly Cloudy,50,2012-11-02 05:30:00
1:00 PM,92,70,39,29.80,6,NE,2.3,,,,Scattered Clouds,40,2012-11-02 06:00:00
1:00 PM,89.6,69.8,52,29.83,6.2,NE,6.9,-,N/A,,Mostly Cloudy,50,2012-11-02 06:00:00
1:30 PM,91.4,69.8,49,29.80,6.2,ENE,4.6,-,N/A,,Mostly Cloudy,70,2012-11-02 06:30:00
2:00 PM,91.4,69.8,49,29.80,6.2,NE,4.6,-,N/A,,Mostly Cloudy,40,2012-11-02 07:00:00
2:30 PM,89.6,69.8,52,29.77,6.2,NNE,4.6,-,N/A,,Mostly Cloudy,30,2012-11-02 07:30:00
3:00 PM,89.6,69.8,52,29.77,5.6,NNE,5.8,-,N/A,,Mostly Cloudy,30,2012-11-02 08:00:00
3:30 PM,89.6,69.8,52,29.77,5.6,NE,5.8,-,N/A,,Mostly Cloudy,40,2012-11-02 08:30:00
4:00 PM,87.8,69.8,55,29.77,5.6,NNE,5.8,-,N/A,,Mostly Cloudy,30,2012-11-02 09:00:00
4:30 PM,89.6,69.8,52,29.77,5.6,NE,3.5,-,N/A,,Mostly Cloudy,40,2012-11-02 09:30:00
5:00 PM,87.8,71.6,58,-9999,5.0,NNW,5.8,-,N/A,,Mostly Cloudy,330,2012-11-02 10:00:00
5:30 PM,87.8,71.6,58,-9999,5.0,Variable,2.3,-,N/A,,Mostly Cloudy,0,2012-11-02 10:30:00
6:00 PM,86.0,71.6,62,29.80,5.0,Variable,2.3,-,N/A,,Mostly Cloudy,0,2012-11-02 11:00:00
6:30 PM,86.0,69.8,58,29.80,6.2,North,4.6,-,N/A,,Mostly Cloudy,10,2012-11-02 11:30:00
7:00 PM,87,75,60,29.80,5,West,2.3,,,,Mist,280,2012-11-02 12:00:00
7:00 PM,84.2,71.6,66,29.80,6.2,Calm,Calm,-,N/A,,Mostly Cloudy,0,2012-11-02 12:00:00
7:30 PM,84.2,69.8,62,29.83,6.2,NNE,3.5,-,N/A,,Mostly Cloudy,20,2012-11-02 12:30:00
8:00 PM,84.2,69.8,62,29.83,6.2,North,4.6,-,N/A,,Mostly Cloudy,10,2012-11-02 13:00:00
8:30 PM,84.2,69.8,62,29.83,6.2,Calm,Calm,-,N/A,,Mostly Cloudy,0,2012-11-02 13:30:00
9:00 PM,84.2,69.8,62,29.86,6.2,Calm,Calm,-,N/A,,Mostly Cloudy,0,2012-11-02 14:00:00
9:30 PM,84.2,69.8,62,29.86,6.2,Calm,Calm,-,N/A,,Mostly Cloudy,0,2012-11-02 14:30:00
10:00 PM,84.2,69.8,62,29.86,6.2,Calm,Calm,-,N/A,,Mostly Cloudy,0,2012-11-02 15:00:00
10:30 PM,84.2,69.8,62,29.86,6.2,NNW,4.6,-,N/A,,Mostly Cloudy,330,2012-11-02 15:30:00
11:00 PM,82.4,69.8,66,29.83,5.0,Calm,Calm,-,N/A,,Mostly Cloudy,0,2012-11-02 16:00:00
11:30 PM,82.4,71.6,70,29.83,5.0,Calm,Calm,-,N/A,,Mostly Cloudy,0,2012-11-02 16:30:00